| time (UTC) | temp F | wind direction | speed MPH | gust MPH | rain 1hr in | rain 24hr in | rain mn in | humidity % | barometer mb |
| 20260510194529 | 52 | 222 | 9.0 | 16.0 | 0.00 | 0.50 | 0.39 | 77 | 1011.4 |
| 20260510193010 | 52 | 233 | 8.0 | 15.0 | 0.00 | 0.50 | 0.39 | 77 | 1011.3 |
| 20260510191530 | 52 | 209 | 6.0 | 10.0 | 0.00 | 0.50 | 0.39 | 76 | 1011.2 |
| 20260510190017 | 52 | 204 | 8.0 | 15.0 | 0.00 | 0.50 | 0.39 | 74 | 1011.0 |
| 20260510184540 | 53 | 212 | 10.0 | 15.0 | 0.00 | 0.50 | 0.39 | 73 | 1010.8 |
| 20260510183031 | 54 | 211 | 7.0 | 13.0 | 0.00 | 0.50 | 0.39 | 72 | 1010.7 |
| 20260510181601 | 54 | 216 | 7.0 | 16.0 | 0.00 | 0.50 | 0.39 | 70 | 1010.8 |
| 20260510180046 | 55 | 204 | 10.0 | 18.0 | 0.00 | 0.50 | 0.39 | 67 | 1010.6 |
| 20260510174504 | 56 | 208 | 11.0 | 20.0 | 0.00 | 0.50 | 0.39 | 65 | 1010.6 |
| 20260510173058 | 56 | 211 | 8.0 | 16.0 | 0.00 | 0.50 | 0.39 | 65 | 1010.4 |
| 20260510171514 | 57 | 212 | 11.0 | 17.0 | 0.00 | 0.50 | 0.39 | 62 | 1010.3 |
| 20260510170008 | 57 | 210 | 8.0 | 12.0 | 0.00 | 0.50 | 0.39 | 62 | 1010.3 |
| 20260510164529 | 57 | 230 | 7.0 | 18.0 | 0.00 | 0.50 | 0.39 | 63 | 1010.2 |
| 20260510163016 | 57 | 201 | 9.0 | 23.0 | 0.00 | 0.50 | 0.39 | 63 | 1010.5 |
| 20260510161543 | 57 | 213 | 13.0 | 24.0 | 0.00 | 0.50 | 0.39 | 62 | 1010.3 |
| 20260510160022 | 57 | 210 | 15.0 | 24.0 | 0.00 | 0.53 | 0.39 | 59 | 1010.2 |
| 20260510154514 | 57 | 253 | 14.0 | 24.0 | 0.00 | 0.53 | 0.39 | 60 | 1010.1 |
| 20260510153003 | 56 | 216 | 15.0 | 27.0 | 0.00 | 0.53 | 0.39 | 61 | 1010.3 |
| 20260510151522 | 56 | 225 | 13.0 | 20.0 | 0.00 | 0.53 | 0.39 | 66 | 1010.3 |
| 20260510150010 | 56 | 243 | 14.0 | 28.0 | 0.00 | 0.53 | 0.39 | 69 | 1010.5 |
| 20260510144533 | 56 | 205 | 15.0 | 23.0 | 0.00 | 0.53 | 0.39 | 71 | 1010.5 |
| 20260510143018 | 55 | 216 | 15.0 | 21.0 | 0.00 | 0.53 | 0.39 | 75 | 1010.8 |
| 20260510141552 | 54 | 200 | 11.0 | 18.0 | 0.00 | 0.53 | 0.39 | 80 | 1010.9 |
| 20260510140033 | 52 | 222 | 16.0 | 20.0 | 0.00 | 0.53 | 0.39 | 81 | 1010.9 |
| 20260510134558 | 53 | 240 | 11.0 | 17.0 | 0.00 | 0.53 | 0.39 | 84 | 1010.6 |
| 20260510133047 | 53 | 185 | 10.0 | 15.0 | 0.00 | 0.53 | 0.39 | 84 | 1010.6 |
| 20260510131532 | 54 | 201 | 8.0 | 18.0 | 0.00 | 0.53 | 0.39 | 83 | 1010.4 |
| 20260510130019 | 53 | 224 | 9.0 | 15.0 | 0.00 | 0.55 | 0.39 | 85 | 1010.5 |
| 20260510124533 | 53 | 213 | 12.0 | 18.0 | 0.00 | 0.55 | 0.39 | 82 | 1010.7 |
| 20260510123024 | 52 | 202 | 5.0 | 12.0 | 0.00 | 0.55 | 0.39 | 88 | 1010.7 |
| 20260510121535 | 53 | 173 | 5.0 | 14.0 | 0.00 | 0.55 | 0.39 | 88 | 1010.6 |
| 20260510120026 | 53 | 216 | 7.0 | 14.0 | 0.00 | 0.57 | 0.39 | 90 | 1010.9 |
| 20260510114546 | 51 | 157 | 7.0 | 15.0 | 0.00 | 0.57 | 0.39 | 91 | 1011.0 |
| 20260510113031 | 51 | 208 | 7.0 | 17.0 | 0.00 | 0.57 | 0.39 | 89 | 1010.8 |
| 20260510111554 | 52 | 206 | 8.0 | 14.0 | 0.13 | 0.57 | 0.39 | 88 | 1011.1 |
| 20260510110046 | 51 | 229 | 11.0 | 18.0 | 0.24 | 0.57 | 0.39 | 87 | 1011.0 |
| 20260510104559 | 51 | 246 | 8.0 | 16.0 | 0.24 | 0.60 | 0.39 | 91 | 1010.9 |
| 20260510103050 | 47 | 243 | 9.0 | 15.0 | 0.24 | 0.60 | 0.39 | 92 | 1011.0 |
| 20260510101503 | 49 | 254 | 14.0 | 18.0 | 0.10 | 0.46 | 0.25 | 88 | 1011.0 |
| 20260510100039 | 51 | 147 | 6.0 | 14.0 | 0.01 | 0.35 | 0.15 | 90 | 1010.3 |
| 20260510094513 | 51 | 132 | 7.0 | 16.0 | 0.01 | 0.35 | 0.14 | 89 | 1010.2 |
| 20260510093105 | 51 | 150 | 7.0 | 12.0 | 0.01 | 0.35 | 0.14 | 91 | 1010.5 |
| 20260510091515 | 51 | 141 | 6.0 | 11.0 | 0.01 | 0.35 | 0.14 | 93 | 1010.6 |
| 20260510090003 | 50 | 116 | 7.0 | 12.0 | 0.02 | 0.40 | 0.13 | 94 | 1010.8 |
| 20260510084517 | 50 | 172 | 6.0 | 11.0 | 0.03 | 0.40 | 0.13 | 94 | 1010.9 |
| 20260510083005 | 50 | 134 | 9.0 | 16.0 | 0.03 | 0.40 | 0.13 | 95 | 1010.9 |
| 20260510081533 | 49 | 129 | 7.0 | 11.0 | 0.04 | 0.40 | 0.13 | 95 | 1010.9 |
| 20260510080003 | 49 | 160 | 6.0 | 11.0 | 0.02 | 0.39 | 0.12 | 96 | 1011.2 |
| 20260510074519 | 49 | 173 | 4.0 | 11.0 | 0.01 | 0.37 | 0.10 | 96 | 1011.2 |
| 20260510073104 | 48 | 158 | 3.0 | 7.0 | 0.01 | 0.37 | 0.10 | 96 | 1011.2 |
| 20260510071505 | 48 | 137 | 2.0 | 7.0 | 0.00 | 0.36 | 0.09 | 96 | 1011.1 |
| 20260510070100 | 48 | 179 | 2.0 | 7.0 | 0.00 | 0.36 | 0.09 | 96 | 1011.1 |
| 20260510064544 | 48 | 166 | 3.0 | 7.0 | 0.00 | 0.36 | 0.09 | 96 | 1011.0 |
| 20260510063038 | 47 | 194 | 2.0 | 7.0 | 0.02 | 0.36 | 0.09 | 96 | 1011.0 |
| 20260510061547 | 47 | 211 | 2.0 | 7.0 | 0.02 | 0.36 | 0.09 | 96 | 1011.0 |
| 20260510060050 | 47 | 164 | 1.0 | 5.0 | 0.02 | 0.36 | 0.09 | 96 | 1010.6 |
| 20260510054555 | 47 | 164 | 0.0 | 5.0 | 0.02 | 0.36 | 0.09 | 96 | 1010.6 |
| 20260510054507 | 47 | 164 | 0.0 | 5.0 | 0.02 | 0.36 | 0.09 | 96 | 1010.7 |
| 20260510053105 | 47 | 185 | 1.0 | 6.0 | 0.01 | 0.35 | 0.08 | 96 | 1010.7 |
| 20260510051518 | 47 | 175 | 2.0 | 5.0 | 0.01 | 0.35 | 0.08 | 96 | 1010.6 |
| 20260510050112 | 47 | 170 | 1.0 | 4.0 | 0.01 | 0.35 | 0.08 | 96 | 1010.6 |
| 20260510044542 | 47 | 163 | 1.0 | 4.0 | 0.01 | 0.34 | 0.07 | 95 | 1010.7 |
| 20260510043021 | 47 | 164 | 1.0 | 3.0 | 0.06 | 0.34 | 0.07 | 95 | 1010.7 |
| 20260510041544 | 47 | 164 | 0.0 | 3.0 | 0.07 | 0.34 | 0.07 | 95 | 1010.8 |
| 20260510040046 | 47 | 164 | 0.0 | 0.0 | 0.07 | 0.34 | 0.07 | 95 | 1010.8 |
| 20260510034506 | 47 | 164 | 0.0 | 2.0 | 0.06 | 0.33 | 0.06 | 95 | 1010.8 |
| 20260510033112 | 47 | 164 | 2.0 | 4.0 | 0.02 | 0.28 | 0.02 | 95 | 1011.0 |
| 20260510031514 | 47 | 159 | 2.0 | 4.0 | 0.00 | 0.27 | 0.00 | 95 | 1011.1 |
| 20260510030015 | 48 | 160 | 3.0 | 5.0 | 0.00 | 0.27 | 0.00 | 95 | 1011.2 |
| 20260510024517 | 48 | 157 | 1.0 | 5.0 | 0.00 | 0.27 | 0.00 | 95 | 1011.1 |
| 20260510023002 | 48 | 170 | 1.0 | 7.0 | 0.00 | 0.27 | 0.00 | 95 | 1011.4 |
| 20260510021533 | 48 | 195 | 3.0 | 7.0 | 0.00 | 0.27 | 0.00 | 95 | 1011.3 |
| 20260510020058 | 48 | 193 | 2.0 | 9.0 | 0.00 | 0.27 | 0.00 | 95 | 1011.3 |
| 20260510014542 | 48 | 172 | 1.0 | 4.0 | 0.00 | 0.27 | 0.00 | 95 | 1011.2 |
| 20260510013047 | 48 | 168 | 1.0 | 5.0 | 0.00 | 0.27 | 0.00 | 95 | 1011.1 |
| 20260510011513 | 48 | 208 | 4.0 | 7.0 | 0.00 | 0.27 | 0.00 | 94 | 1011.3 |
| 20260510010059 | 48 | 225 | 3.0 | 8.0 | 0.00 | 0.27 | 0.00 | 95 | 1011.4 |
| 20260510004518 | 48 | 206 | 2.0 | 5.0 | 0.00 | 0.27 | 0.00 | 95 | 1011.5 |
| 20260510003010 | 48 | 206 | 3.0 | 5.0 | 0.00 | 0.27 | 0.00 | 95 | 1011.6 |
| 20260510001514 | 48 | 196 | 3.0 | 9.0 | 0.00 | 0.27 | 0.00 | 94 | 1011.6 |
| 20260510000100 | 48 | 195 | 4.0 | 8.0 | 0.00 | 0.27 | 0.00 | 94 | 1011.6 |
| 20260509234530 | 48 | 195 | 2.0 | 8.0 | 0.00 | 0.27 | 0.27 | 93 | 1011.5 |
| 20260509233011 | 48 | 204 | 3.0 | 8.0 | 0.01 | 0.27 | 0.27 | 93 | 1011.7 |
| 20260509231559 | 48 | 181 | 3.0 | 6.0 | 0.01 | 0.27 | 0.27 | 92 | 1011.7 |
| 20260509231504 | 48 | 177 | 3.0 | 6.0 | 0.01 | 0.27 | 0.27 | 92 | 1011.7 |
| 20260509230004 | 48 | 180 | 2.0 | 4.0 | 0.01 | 0.27 | 0.27 | 91 | 1011.5 |
| 20260509224529 | 48 | 169 | 0.0 | 3.0 | 0.01 | 0.27 | 0.27 | 90 | 1011.4 |
| 20260509223029 | 49 | 225 | 2.0 | 6.0 | 0.00 | 0.26 | 0.26 | 87 | 1011.4 |
| 20260509221549 | 49 | 249 | 4.0 | 11.0 | 0.00 | 0.26 | 0.26 | 86 | 1011.1 |
| 20260509220029 | 49 | 255 | 7.0 | 11.0 | 0.01 | 0.26 | 0.26 | 88 | 1011.0 |
| 20260509214509 | 49 | 239 | 3.0 | 6.0 | 0.05 | 0.26 | 0.26 | 88 | 1010.8 |
| 20260509213003 | 49 | 240 | 5.0 | 14.0 | 0.10 | 0.26 | 0.26 | 85 | 1010.7 |
| 20260509211525 | 49 | 237 | 7.0 | 15.0 | 0.10 | 0.26 | 0.26 | 86 | 1010.7 |
| 20260509210018 | 49 | 235 | 11.0 | 20.0 | 0.09 | 0.25 | 0.25 | 89 | 1010.6 |
| 20260509204531 | 49 | 230 | 13.0 | 24.0 | 0.06 | 0.21 | 0.21 | 90 | 1010.4 |
| 20260509203023 | 53 | 191 | 2.0 | 10.0 | 0.00 | 0.16 | 0.16 | 83 | 1009.7 |
| 20260509201601 | 53 | 171 | 0.0 | 3.0 | 0.01 | 0.16 | 0.16 | 83 | 1009.0 |